�������l�o���
Date,Time,MP-1(��Sv/h),MP-2(��Sv/h),MP-3(��Sv/h),MP-4(��Sv/h),MP-5(��Sv/h),MP-6(��Sv/h),MP-7(��Sv/h),MP-8(��Sv/h),����,����(m/s),���J
2019/05/17,00:00,0.747,1.086,0.750,1.368,1.009,0.435,0.763,0.722,��쐼,3.3,��
2019/05/17,00:10,0.746,1.088,0.751,1.368,1.009,0.434,0.761,0.719,��쐼,3.9,��
2019/05/17,00:20,0.746,1.087,0.750,1.364,1.008,0.433,0.761,0.719,��쐼,3.8,��
2019/05/17,00:30,0.746,1.084,0.749,1.366,1.008,0.435,0.763,0.721,��쐼,3.0,��
2019/05/17,00:40,0.744,1.085,0.750,1.365,1.008,0.436,0.762,0.720,��,2.6,��
2019/05/17,00:50,0.745,1.086,0.751,1.368,1.008,0.434,0.763,0.721,�쐼,2.2,��
2019/05/17,01:00,0.745,1.084,0.751,1.367,1.008,0.434,0.762,0.722,��쐼,2.3,��
2019/05/17,01:10,0.746,1.085,0.751,1.367,1.009,0.433,0.762,0.722,�쐼,2.3,��
2019/05/17,01:20,0.746,1.086,0.750,1.368,1.007,0.434,0.763,0.721,�쐼,2.8,��
2019/05/17,01:30,0.746,1.083,0.752,1.367,1.007,0.434,0.762,0.719,�쐼,3.1,��
2019/05/17,01:40,0.745,1.086,0.751,1.368,1.007,0.435,0.762,0.721,��쐼,2.6,��
2019/05/17,01:50,0.745,1.084,0.750,1.367,1.008,0.433,0.763,0.720,��쐼,2.3,��
2019/05/17,02:00,0.744,1.085,0.752,1.364,1.007,0.433,0.762,0.722,��쐼,2.0,��
2019/05/17,02:10,0.746,1.084,0.750,1.364,1.008,0.433,0.761,0.719,�쐼,1.9,��
2019/05/17,02:20,0.744,1.084,0.750,1.368,1.005,0.434,0.762,0.720,��쐼,1.7,��
2019/05/17,02:30,0.745,1.084,0.750,1.365,1.008,0.433,0.762,0.720,��쐼,1.2,��
2019/05/17,02:40,0.745,1.086,0.748,1.367,1.009,0.433,0.762,0.718,��,1.1,��
2019/05/17,02:50,0.743,1.085,0.749,1.366,1.009,0.435,0.763,0.721,��쐼,0.9,��
2019/05/17,03:00,0.746,1.087,0.751,1.366,1.009,0.432,0.763,0.722,�쐼,1.1,��
2019/05/17,03:10,0.744,1.083,0.750,1.365,1.009,0.434,0.762,0.721,�쐼,0.9,��
2019/05/17,03:20,0.745,1.085,0.750,1.366,1.009,0.433,0.763,0.720,�쐼,1.2,��
2019/05/17,03:30,0.743,1.083,0.751,1.367,1.006,0.434,0.762,0.720,���쐼,0.9,��
2019/05/17,03:40,0.746,1.085,0.750,1.368,1.007,0.433,0.762,0.720,���쐼,0.6,��
2019/05/17,03:50,0.744,1.085,0.749,1.365,1.008,0.434,0.761,0.721,�k��,1.2,��
2019/05/17,04:00,0.745,1.084,0.751,1.365,1.007,0.434,0.763,0.721,�k�k��,0.9,��
2019/05/17,04:10,0.746,1.084,0.749,1.366,1.007,0.432,0.762,0.720,�k�k��,1.2,��
2019/05/17,04:20,0.745,1.084,0.751,1.365,1.008,0.433,0.760,0.723,�k�k��,1.5,��
2019/05/17,04:30,0.746,1.084,0.749,1.368,1.007,0.435,0.763,0.722,�k,1.1,��
2019/05/17,04:40,0.744,1.085,0.750,1.366,1.008,0.433,0.764,0.721,�k,2.3,��
2019/05/17,04:50,0.746,1.084,0.751,1.366,1.008,0.434,0.763,0.723,�k,2.5,��
2019/05/17,05:00,0.744,1.082,0.752,1.365,1.010,0.433,0.763,0.722,�k,2.5,��
2019/05/17,05:10,0.743,1.084,0.749,1.364,1.008,0.432,0.760,0.721,�k,2.3,��
2019/05/17,05:20,0.744,1.084,0.749,1.364,1.006,0.434,0.762,0.721,�k,2.6,��
2019/05/17,05:30,0.743,1.084,0.749,1.365,1.009,0.433,0.763,0.721,�k�k��,3.2,��
2019/05/17,05:40,0.744,1.085,0.751,1.366,1.010,0.432,0.761,0.721,�k�k��,3.4,��
2019/05/17,05:50,0.743,1.085,0.751,1.366,1.009,0.433,0.761,0.721,�k�k��,3.4,��
2019/05/17,06:00,0.745,1.087,0.750,1.369,1.009,0.431,0.763,0.722,�k�k��,4.2,��
2019/05/17,06:10,0.745,1.086,0.751,1.368,1.008,0.432,0.761,0.722,�k�k��,2.9,��
2019/05/17,06:20,0.746,1.087,0.752,1.367,1.007,0.434,0.762,0.722,�k,1.5,��
2019/05/17,06:30,0.745,1.086,0.753,1.367,1.011,0.433,0.762,0.722,�k�k��,1.2,��
2019/05/17,06:40,0.747,1.087,0.750,1.368,1.008,0.434,0.763,0.721,�k��,0.9,��
2019/05/17,06:50,0.748,1.086,0.752,1.370,1.009,0.436,0.762,0.722,�k,1.7,��
2019/05/17,07:00,0.746,1.085,0.751,1.368,1.010,0.432,0.763,0.722,�k�k��,1.4,��
2019/05/17,07:10,0.746,1.086,0.750,1.368,1.007,0.433,0.765,0.722,�k,1.9,��
2019/05/17,07:20,0.747,1.084,0.750,1.369,1.009,0.430,0.764,0.722,�k,1.2,��
2019/05/17,07:30,0.746,1.083,0.750,1.368,1.010,0.432,0.763,0.722,�k,0.8,��
2019/05/17,07:40,0.747,1.083,0.750,1.368,1.010,0.430,0.762,0.723,�k,0.6,��
2019/05/17,07:50,0.746,1.084,0.749,1.370,1.009,0.431,0.762,0.721,-,CALM,��
2019/05/17,08:00,0.746,1.083,0.750,1.369,1.008,0.432,0.762,0.720,�쓌,1.2,��
2019/05/17,08:10,0.747,1.083,0.752,1.369,1.010,0.433,0.760,0.722,�쓌,1.5,��
2019/05/17,08:20,0.745,1.083,0.749,1.366,1.008,0.431,0.760,0.720,��,1.5,��
2019/05/17,08:30,0.747,1.081,0.750,1.369,1.010,0.431,0.761,0.719,���k��,2.2,��
2019/05/17,08:40,0.744,1.081,0.749,1.368,1.008,0.432,0.760,0.720,�k��,1.7,��
2019/05/17,08:50,0.747,1.085,0.749,1.369,1.010,0.432,0.759,0.719,�k��,1.7,��
2019/05/17,09:00,0.747,1.085,0.750,1.368,1.009,0.431,0.760,0.719,���k��,2.0,��
2019/05/17,09:10,0.746,1.085,0.750,1.366,1.008,0.432,0.762,0.719,���k��,2.5,��
2019/05/17,09:20,0.748,1.083,0.750,1.369,1.010,0.431,0.761,0.719,��,2.3,��
2019/05/17,09:30,0.746,1.083,0.750,1.369,1.011,0.434,0.761,0.718,���쓌,1.9,��
2019/05/17,09:40,0.747,1.087,0.748,1.368,1.010,0.432,0.759,0.719,��,2.0,��
2019/05/17,09:50,0.744,1.088,0.749,1.369,1.011,0.431,0.760,0.721,��,2.3,��
2019/05/17,10:00,0.746,1.086,0.749,1.369,1.011,0.431,0.763,0.720,��,3.4,��
2019/05/17,10:10,0.746,1.089,0.750,1.369,1.011,0.432,0.760,0.719,���쓌,3.9,��
2019/05/17,10:20,0.748,1.088,0.750,1.367,1.010,0.431,0.760,0.718,��,2.0,��
2019/05/17,10:30,0.747,1.089,0.749,1.371,1.013,0.431,0.762,0.721,���쓌,1.7,��
2019/05/17,10:40,0.748,1.089,0.749,1.372,1.014,0.433,0.761,0.719,�쓌,1.5,��
2019/05/17,10:50,0.747,1.091,0.749,1.370,1.016,0.431,0.761,0.720,�쓌,3.3,��
2019/05/17,11:00,0.748,1.092,0.748,1.372,1.013,0.433,0.761,0.719,�쓌,4.1,��
2019/05/17,11:10,0.748,1.089,0.750,1.370,1.014,0.432,0.763,0.720,�쓌,4.6,��
2019/05/17,11:20,0.748,1.091,0.750,1.368,1.014,0.433,0.761,0.719,�쓌,4.8,��
2019/05/17,11:30,0.748,1.093,0.751,1.367,1.015,0.431,0.762,0.720,�쓌,5.7,��
2019/05/17,11:40,0.746,1.091,0.750,1.367,1.013,0.432,0.761,0.719,�쓌,6.0,��
2019/05/17,11:50,0.746,1.093,0.750,1.369,1.017,0.432,0.761,0.719,�쓌,5.7,��
2019/05/17,12:00,0.747,1.096,0.751,1.367,1.016,0.432,0.762,0.722,�쓌,5.5,��
2019/05/17,12:10,0.749,1.094,0.751,1.370,1.015,0.432,0.762,0.721,�쓌,5.8,��
2019/05/17,12:20,0.751,1.093,0.751,1.372,1.018,0.432,0.762,0.720,�쓌,6.0,��
2019/05/17,12:30,0.751,1.093,0.753,1.368,1.017,0.432,0.763,0.720,�쓌,5.8,��
2019/05/17,12:40,0.751,1.095,0.753,1.368,1.015,0.433,0.763,0.719,�쓌,5.4,��
2019/05/17,12:50,0.749,1.096,0.753,1.370,1.019,0.433,0.761,0.720,�쓌,5.8,��
2019/05/17,13:00,0.750,1.094,0.753,1.369,1.017,0.433,0.763,0.720,��쓌,8.2,��
2019/05/17,13:10,0.750,1.096,0.755,1.368,1.018,0.432,0.763,0.721,��쓌,7.2,��
2019/05/17,13:20,0.751,1.096,0.755,1.371,1.018,0.434,0.764,0.720,��쓌,8.4,��
2019/05/17,13:30,0.750,1.098,0.752,1.370,1.019,0.433,0.762,0.720,��쓌,8.4,��
2019/05/17,13:40,0.751,1.094,0.756,1.372,1.019,0.434,0.763,0.721,��쓌,9.2,��
2019/05/17,13:50,0.752,1.094,0.755,1.370,1.020,0.434,0.763,0.720,��쓌,9.8,��
2019/05/17,14:00,0.752,1.098,0.751,1.371,1.022,0.434,0.764,0.721,��쓌,9.8,��
2019/05/17,14:10,0.753,1.098,0.753,1.372,1.021,0.434,0.762,0.720,��쓌,11.1,��
2019/05/17,14:20,0.753,1.098,0.754,1.372,1.021,0.434,0.764,0.720,��쓌,10.3,��
2019/05/17,14:30,0.752,1.097,0.754,1.373,1.022,0.434,0.764,0.721,��쓌,12.5,��
2019/05/17,14:40,0.752,1.094,0.753,1.370,1.019,0.436,0.764,0.720,��쓌,10.3,��
2019/05/17,14:50,0.753,1.100,0.755,1.371,1.022,0.434,0.762,0.722,��쓌,11.3,��
2019/05/17,15:00,0.750,1.100,0.754,1.376,1.022,0.435,0.765,0.720,��,10.9,��
2019/05/17,15:10,0.751,1.101,0.754,1.373,1.020,0.436,0.764,0.722,��,9.4,��
2019/05/17,15:20,0.753,1.103,0.754,1.375,1.021,0.437,0.764,0.722,��쓌,9.6,��
2019/05/17,15:30,0.751,1.101,0.756,1.373,1.022,0.436,0.765,0.722,��쓌,10.6,��
2019/05/17,15:40,0.752,1.102,0.755,1.372,1.022,0.435,0.764,0.721,��쓌,10.9,��
2019/05/17,15:50,0.753,1.100,0.758,1.375,1.021,0.437,0.763,0.721,��,10.9,��
2019/05/17,16:00,0.752,1.102,0.754,1.373,1.023,0.436,0.763,0.721,��,9.7,��
2019/05/17,16:10,0.755,1.101,0.756,1.375,1.024,0.436,0.766,0.720,��,10.0,��
2019/05/17,16:20,0.752,1.100,0.757,1.376,1.023,0.435,0.763,0.719,��,10.7,��
2019/05/17,16:30,0.753,1.103,0.757,1.373,1.020,0.436,0.765,0.722,��,10.6,��
2019/05/17,16:40,0.752,1.103,0.756,1.374,1.022,0.436,0.764,0.721,��쓌,10.9,��
2019/05/17,16:50,0.757,1.104,0.755,1.376,1.025,0.435,0.764,0.722,��,10.4,��
2019/05/17,17:00,0.754,1.105,0.755,1.375,1.022,0.438,0.764,0.721,��쓌,10.5,��
2019/05/17,17:10,0.753,1.104,0.757,1.374,1.022,0.436,0.765,0.722,��쓌,10.2,��
2019/05/17,17:20,0.754,1.104,0.757,1.377,1.024,0.436,0.765,0.721,��,9.3,��
2019/05/17,17:30,0.753,1.103,0.757,1.375,1.021,0.438,0.763,0.722,��,9.1,��
2019/05/17,17:40,0.754,1.104,0.758,1.376,1.021,0.438,0.764,0.721,��,8.9,��
2019/05/17,17:50,0.753,1.104,0.755,1.373,1.023,0.437,0.763,0.721,��,8.2,��
2019/05/17,18:00,0.752,1.108,0.755,1.377,1.021,0.437,0.763,0.724,��,10.2,��
2019/05/17,18:10,0.753,1.106,0.756,1.376,1.023,0.436,0.765,0.724,��,8.1,��
2019/05/17,18:20,0.752,1.107,0.756,1.377,1.022,0.435,0.764,0.723,��,8.7,��
2019/05/17,18:30,0.754,1.107,0.758,1.376,1.021,0.437,0.763,0.723,��,8.3,��
2019/05/17,18:40,0.752,1.106,0.755,1.377,1.022,0.436,0.763,0.725,��,9.1,��
2019/05/17,18:50,0.753,1.106,0.756,1.376,1.020,0.438,0.761,0.725,��,8.9,��
2019/05/17,19:00,0.753,1.105,0.757,1.379,1.022,0.436,0.762,0.723,��,8.6,��
2019/05/17,19:10,0.754,1.108,0.758,1.377,1.022,0.439,0.763,0.724,��,8.8,��
2019/05/17,19:20,0.755,1.108,0.762,1.378,1.022,0.439,0.763,0.724,��,8.8,��
2019/05/17,19:30,0.756,1.106,0.758,1.379,1.021,0.437,0.764,0.723,��,8.6,��
2019/05/17,19:40,0.755,1.107,0.759,1.382,1.025,0.439,0.765,0.726,��,8.2,��
2019/05/17,19:50,0.755,1.109,0.759,1.379,1.023,0.439,0.765,0.724,��,7.7,��
2019/05/17,20:00,0.756,1.106,0.760,1.379,1.028,0.437,0.763,0.723,��,6.9,��
2019/05/17,20:10,0.756,1.106,0.760,1.379,1.024,0.438,0.767,0.723,��,7.4,��
2019/05/17,20:20,0.754,1.108,0.760,1.378,1.025,0.438,0.764,0.722,��,7.4,��
2019/05/17,20:30,0.758,1.108,0.759,1.379,1.027,0.439,0.767,0.722,��,8.2,��
2019/05/17,20:40,0.756,1.107,0.760,1.378,1.025,0.439,0.766,0.723,��쐼,7.3,��
2019/05/17,20:50,0.757,1.107,0.758,1.381,1.026,0.438,0.766,0.722,��쐼,8.0,��
2019/05/17,21:00,0.756,1.105,0.760,1.378,1.024,0.437,0.767,0.723,��쐼,7.9,��
2019/05/17,21:10,0.756,1.107,0.759,1.379,1.024,0.437,0.765,0.723,��쐼,7.8,��
2019/05/17,21:20,0.754,1.104,0.759,1.380,1.025,0.438,0.766,0.723,��쐼,7.4,��
2019/05/17,21:30,0.757,1.106,0.759,1.381,1.026,0.439,0.765,0.723,��,7.3,��
2019/05/17,21:40,0.757,1.104,0.757,1.379,1.025,0.438,0.764,0.724,��쐼,7.2,��
2019/05/17,21:50,0.754,1.105,0.759,1.380,1.025,0.438,0.765,0.723,��쐼,7.1,��
2019/05/17,22:00,0.755,1.104,0.758,1.381,1.024,0.438,0.766,0.722,��쐼,6.9,��
2019/05/17,22:10,0.754,1.104,0.758,1.380,1.025,0.438,0.766,0.722,��,7.2,��
2019/05/17,22:20,0.755,1.105,0.758,1.379,1.023,0.437,0.766,0.721,��,6.3,��
2019/05/17,22:30,0.754,1.107,0.759,1.379,1.023,0.437,0.764,0.724,��쐼,5.7,��
2019/05/17,22:40,0.754,1.102,0.756,1.377,1.023,0.436,0.763,0.723,��쐼,5.5,��
2019/05/17,22:50,0.754,1.103,0.757,1.379,1.022,0.436,0.763,0.725,��쐼,5.0,��
2019/05/17,23:00,0.755,1.104,0.757,1.377,1.024,0.436,0.764,0.721,��쐼,5.1,��
2019/05/17,23:10,0.753,1.103,0.759,1.380,1.022,0.436,0.765,0.725,��쐼,5.2,��
2019/05/17,23:20,0.753,1.104,0.756,1.379,1.026,0.436,0.765,0.723,��쐼,5.9,��
2019/05/17,23:30,0.754,1.103,0.757,1.378,1.024,0.437,0.764,0.721,��쐼,5.3,��
2019/05/17,23:40,0.756,1.103,0.760,1.380,1.023,0.437,0.764,0.721,��쐼,5.6,��
2019/05/17,23:50,0.754,1.102,0.758,1.379,1.025,0.436,0.763,0.724,��쐼,5.7,��
